contact:dominique.lefevre@mio.osupytheas.fr, maurice.libes@osupytheas.fr, didier.mallarino@osupytheas.fr
Project:EMSO http://www.emso-fr.org/EMSO-France
Depth: 2436.0 m
Title:EMSO Ligure Ouest : Data MII capteur MICROCAT
DateTime_Computer,Latitude,Longitude,Temperature,Conductivity,Pressure,DateTime_Instrument
DateTime_Computer,Latitude,Longitude,degC,S m-1,dbar,DateTime_Instrument
2020-04-25T00:01:54Z,42.805,6.029,13.2970,4.59973,2470.063,2020-4-25T02:02:35Z
2020-04-25T00:04:57Z,42.805,6.029,13.2971,4.59975,2470.04,2020-4-25T02:05:38Z
2020-04-25T00:08:01Z,42.805,6.029,13.2974,4.59975,2470.087,2020-4-25T02:08:41Z
2020-04-25T00:11:04Z,42.805,6.029,13.2974,4.59973,2470.017,2020-4-25T02:11:44Z
2020-04-25T00:14:07Z,42.805,6.029,13.2974,4.59974,2470.053,2020-4-25T02:14:47Z
2020-04-25T00:17:10Z,42.805,6.029,13.2968,4.59973,2470.03,2020-4-25T02:17:51Z
2020-04-25T00:20:14Z,42.805,6.029,13.2973,4.59972,2470.053,2020-4-25T02:20:54Z
2020-04-25T00:23:17Z,42.805,6.029,13.2971,4.59974,2470.053,2020-4-25T02:23:57Z
2020-04-25T00:26:20Z,42.805,6.029,13.2970,4.59973,2470.017,2020-4-25T02:27:01Z
2020-04-25T00:29:24Z,42.805,6.029,13.2974,4.59976,2470.063,2020-4-25T02:30:04Z
2020-04-25T00:32:27Z,42.805,6.029,13.2971,4.59976,2470.017,2020-4-25T02:33:07Z
2020-04-25T00:35:30Z,42.805,6.029,13.2971,4.59975,2470.04,2020-4-25T02:36:10Z
2020-04-25T00:38:33Z,42.805,6.029,13.2972,4.59978,2470.017,2020-4-25T02:39:14Z
2020-04-25T00:41:37Z,42.805,6.029,13.2967,4.59974,2470.017,2020-4-25T02:42:17Z
2020-04-25T00:44:40Z,42.805,6.029,13.2970,4.59973,2470.053,2020-4-25T02:45:20Z
2020-04-25T00:47:43Z,42.805,6.029,13.2968,4.59975,2470.03,2020-4-25T02:48:24Z
2020-04-25T00:50:46Z,42.805,6.029,13.2971,4.59973,2470.04,2020-4-25T02:51:27Z
2020-04-25T00:53:50Z,42.805,6.029,13.2971,4.59973,2470.017,2020-4-25T02:54:30Z
2020-04-25T00:56:53Z,42.805,6.029,13.2967,4.59976,2470.053,2020-4-25T02:57:33Z
2020-04-25T00:59:56Z,42.805,6.029,13.2970,4.59973,2470.017,2020-4-25T03:00:36Z
2020-04-25T01:02:59Z,42.805,6.029,13.2970,4.59973,2470.007,2020-4-25T03:03:40Z
2020-04-25T01:06:03Z,42.805,6.029,13.2970,4.59974,2470.017,2020-4-25T03:06:43Z
2020-04-25T01:09:06Z,42.805,6.029,13.2972,4.59973,2470.017,2020-4-25T03:09:46Z
2020-04-25T01:12:09Z,42.805,6.029,13.2970,4.59971,2470.017,2020-4-25T03:12:50Z
2020-04-25T01:15:12Z,42.805,6.029,13.2971,4.59971,2470.007,2020-4-25T03:15:53Z
2020-04-25T01:18:16Z,42.805,6.029,13.2970,4.59973,2470.063,2020-4-25T03:18:56Z
2020-04-25T01:21:19Z,42.805,6.029,13.2967,4.59973,2470.04,2020-4-25T03:21:59Z
2020-04-25T01:24:22Z,42.805,6.029,13.2970,4.59973,2470.017,2020-4-25T03:25:02Z
2020-04-25T01:27:25Z,42.805,6.029,13.2973,4.59973,2469.97,2020-4-25T03:28:06Z
2020-04-25T01:30:29Z,42.805,6.029,13.2967,4.59975,2469.984,2020-4-25T03:31:09Z
2020-04-25T01:33:32Z,42.805,6.029,13.2974,4.59973,2469.993,2020-4-25T03:34:12Z
2020-04-25T01:36:35Z,42.805,6.029,13.2971,4.59972,2469.984,2020-4-25T03:37:15Z
2020-04-25T01:39:38Z,42.805,6.029,13.2971,4.59974,2469.984,2020-4-25T03:40:19Z
2020-04-25T01:42:42Z,42.805,6.029,13.2971,4.59971,2470.017,2020-4-25T03:43:22Z
2020-04-25T01:45:45Z,42.805,6.029,13.2972,4.59973,2470.007,2020-4-25T03:46:25Z
2020-04-25T01:48:48Z,42.805,6.029,13.2968,4.59976,2469.993,2020-4-25T03:49:28Z
2020-04-25T01:51:51Z,42.805,6.029,13.2969,4.59970,2469.993,2020-4-25T03:52:32Z
2020-04-25T01:54:54Z,42.805,6.029,13.2964,4.59969,2470.007,2020-4-25T03:55:35Z
2020-04-25T01:57:58Z,42.805,6.029,13.2972,4.59970,2470.04,2020-4-25T03:58:38Z
2020-04-25T02:01:01Z,42.805,6.029,13.2970,4.59974,2469.993,2020-4-25T04:01:41Z
2020-04-25T02:04:04Z,42.805,6.029,13.2971,4.59973,2469.993,2020-4-25T04:04:45Z
2020-04-25T02:07:08Z,42.805,6.029,13.2967,4.59971,2470.03,2020-4-25T04:07:48Z
2020-04-25T02:10:11Z,42.805,6.029,13.2971,4.59972,2470.017,2020-4-25T04:10:51Z
2020-04-25T02:13:14Z,42.805,6.029,13.2972,4.59971,2469.993,2020-4-25T04:13:54Z
2020-04-25T02:16:17Z,42.805,6.029,13.2971,4.59972,2469.993,2020-4-25T04:16:57Z
2020-04-25T02:19:20Z,42.805,6.029,13.2968,4.59976,2470.017,2020-4-25T04:20:01Z
2020-04-25T02:22:24Z,42.805,6.029,13.2969,4.59975,2469.97,2020-4-25T04:23:04Z
2020-04-25T02:25:27Z,42.805,6.029,13.2971,4.59978,2470.03,2020-4-25T04:26:07Z
2020-04-25T02:28:30Z,42.805,6.029,13.2974,4.59973,2469.947,2020-4-25T04:29:10Z
2020-04-25T02:31:33Z,42.805,6.029,13.2971,4.59975,2470.007,2020-4-25T04:32:14Z
2020-04-25T02:34:37Z,42.805,6.029,13.2972,4.59977,2469.947,2020-4-25T04:35:17Z
2020-04-25T02:37:40Z,42.805,6.029,13.2973,4.59974,2469.984,2020-4-25T04:38:20Z
2020-04-25T02:40:43Z,42.805,6.029,13.2972,4.59973,2469.97,2020-4-25T04:41:23Z
2020-04-25T02:43:46Z,42.805,6.029,13.2972,4.59971,2469.96,2020-4-25T04:44:27Z
2020-04-25T02:46:50Z,42.805,6.029,13.2973,4.59975,2469.984,2020-4-25T04:47:30Z
2020-04-25T02:49:53Z,42.805,6.029,13.2967,4.59972,2469.984,2020-4-25T04:50:33Z
2020-04-25T02:52:56Z,42.805,6.029,13.2971,4.59975,2469.993,2020-4-25T04:53:36Z
2020-04-25T02:55:59Z,42.805,6.029,13.2974,4.59973,2469.984,2020-4-25T04:56:40Z
2020-04-25T02:59:02Z,42.805,6.029,13.2970,4.59977,2469.993,2020-4-25T04:59:43Z
2020-04-25T03:02:06Z,42.805,6.029,13.2968,4.59977,2469.984,2020-4-25T05:02:46Z
2020-04-25T03:05:09Z,42.805,6.029,13.2967,4.59977,2470.03,2020-4-25T05:05:50Z
2020-04-25T03:08:12Z,42.805,6.029,13.2967,4.59976,2470.007,2020-4-25T05:08:53Z
2020-04-25T03:11:16Z,42.805,6.029,13.2973,4.59976,2469.97,2020-4-25T05:11:56Z
2020-04-25T03:14:20Z,42.805,6.029,13.2972,4.59979,2470.007,2020-4-25T05:15:00Z
2020-04-25T03:17:23Z,42.805,6.029,13.2971,4.59978,2469.993,2020-4-25T05:18:03Z
2020-04-25T03:20:26Z,42.805,6.029,13.2971,4.59981,2469.97,2020-4-25T05:21:06Z
2020-04-25T03:23:29Z,42.805,6.029,13.2968,4.59979,2469.947,2020-4-25T05:24:10Z
2020-04-25T03:26:33Z,42.805,6.029,13.2969,4.59974,2469.97,2020-4-25T05:27:13Z
2020-04-25T03:29:36Z,42.805,6.029,13.2971,4.59976,2470.007,2020-4-25T05:30:16Z
2020-04-25T03:32:39Z,42.805,6.029,13.2971,4.59974,2469.97,2020-4-25T05:33:20Z
2020-04-25T03:35:42Z,42.805,6.029,13.2971,4.59973,2469.993,2020-4-25T05:36:23Z
2020-04-25T03:38:46Z,42.805,6.029,13.2968,4.59973,2469.97,2020-4-25T05:39:26Z
2020-04-25T03:41:49Z,42.805,6.029,13.2971,4.59977,2469.993,2020-4-25T05:42:29Z
2020-04-25T03:44:52Z,42.805,6.029,13.2968,4.59976,2469.993,2020-4-25T05:45:33Z
2020-04-25T03:47:55Z,42.805,6.029,13.2968,4.59974,2469.984,2020-4-25T05:48:36Z
2020-04-25T03:50:59Z,42.805,6.029,13.2970,4.59977,2469.947,2020-4-25T05:51:39Z
2020-04-25T03:54:02Z,42.805,6.029,13.2972,4.59976,2470.017,2020-4-25T05:54:42Z
2020-04-25T03:57:05Z,42.805,6.029,13.2971,4.59976,2470.007,2020-4-25T05:57:45Z
2020-04-25T04:00:09Z,42.805,6.029,13.2973,4.59974,2469.993,2020-4-25T06:00:49Z
2020-04-25T04:03:12Z,42.805,6.029,13.2971,4.59976,2469.993,2020-4-25T06:03:52Z
2020-04-25T04:06:15Z,42.805,6.029,13.2968,4.59976,2469.979,2020-4-25T06:06:55Z
2020-04-25T04:09:18Z,42.805,6.029,13.2973,4.59979,2469.984,2020-4-25T06:09:59Z
2020-04-25T04:12:22Z,42.805,6.029,13.2968,4.59973,2469.947,2020-4-25T06:13:02Z
2020-04-25T04:15:25Z,42.805,6.029,13.2970,4.59973,2469.984,2020-4-25T06:16:05Z
2020-04-25T04:18:28Z,42.805,6.029,13.2971,4.59973,2469.984,2020-4-25T06:19:08Z
2020-04-25T04:21:31Z,42.805,6.029,13.2972,4.59974,2469.96,2020-4-25T06:22:12Z
2020-04-25T04:24:34Z,42.805,6.029,13.2969,4.59978,2470.03,2020-4-25T06:25:15Z
2020-04-25T04:27:38Z,42.805,6.029,13.2971,4.59973,2469.993,2020-4-25T06:28:18Z
2020-04-25T04:30:41Z,42.805,6.029,13.2975,4.59979,2469.984,2020-4-25T06:31:21Z
2020-04-25T04:33:44Z,42.805,6.029,13.2971,4.59977,2469.97,2020-4-25T06:34:25Z
2020-04-25T04:36:47Z,42.805,6.029,13.2971,4.59974,2470.007,2020-4-25T06:37:28Z
2020-04-25T04:39:51Z,42.805,6.029,13.2971,4.59973,2469.97,2020-4-25T06:40:31Z
2020-04-25T04:42:54Z,42.805,6.029,13.2968,4.59984,2469.984,2020-4-25T06:43:34Z
2020-04-25T04:45:57Z,42.805,6.029,13.2974,4.59984,2470.007,2020-4-25T06:46:37Z
2020-04-25T04:49:00Z,42.805,6.029,13.2967,4.59981,2470.017,2020-4-25T06:49:41Z
2020-04-25T04:52:04Z,42.805,6.029,13.2971,4.59982,2470.007,2020-4-25T06:52:44Z
2020-04-25T04:55:07Z,42.805,6.029,13.2974,4.59986,2470.007,2020-4-25T06:55:47Z
2020-04-25T04:58:10Z,42.805,6.029,13.2972,4.59981,2469.993,2020-4-25T06:58:50Z
2020-04-25T05:01:13Z,42.805,6.029,13.2970,4.59979,2470.017,2020-4-25T07:01:54Z
2020-04-25T05:04:16Z,42.805,6.029,13.2971,4.59985,2470.03,2020-4-25T07:04:57Z
2020-04-25T05:07:20Z,42.805,6.029,13.2968,4.59983,2470.007,2020-4-25T07:08:00Z
2020-04-25T05:10:23Z,42.805,6.029,13.2974,4.59982,2470.04,2020-4-25T07:11:03Z
2020-04-25T05:13:26Z,42.805,6.029,13.2973,4.59976,2470.017,2020-4-25T07:14:07Z
2020-04-25T05:16:29Z,42.805,6.029,13.2973,4.59983,2470.053,2020-4-25T07:17:10Z
2020-04-25T05:19:33Z,42.805,6.029,13.2975,4.59978,2470.003,2020-4-25T07:20:13Z
2020-04-25T05:22:36Z,42.805,6.029,13.2974,4.59975,2469.993,2020-4-25T07:23:16Z
2020-04-25T05:25:39Z,42.805,6.029,13.2968,4.59978,2470.04,2020-4-25T07:26:19Z
2020-04-25T05:28:42Z,42.805,6.029,13.2968,4.59974,2470.017,2020-4-25T07:29:23Z
2020-04-25T05:31:46Z,42.805,6.029,13.2975,4.59991,2470.03,2020-4-25T07:32:26Z
2020-04-25T05:34:49Z,42.805,6.029,13.2972,4.59996,2470.053,2020-4-25T07:35:29Z
2020-04-25T05:37:52Z,42.805,6.029,13.2969,4.59981,2470.017,2020-4-25T07:38:33Z
2020-04-25T05:40:56Z,42.805,6.029,13.2972,4.59978,2470.04,2020-4-25T07:41:36Z
2020-04-25T05:43:59Z,42.805,6.029,13.2971,4.59980,2470.04,2020-4-25T07:44:39Z
2020-04-25T05:47:02Z,42.805,6.029,13.2973,4.59975,2470.053,2020-4-25T07:47:42Z
2020-04-25T05:50:05Z,42.805,6.029,13.2967,4.59983,2470.053,2020-4-25T07:50:46Z
2020-04-25T05:53:08Z,42.805,6.029,13.2970,4.59986,2470.04,2020-4-25T07:53:49Z
2020-04-25T05:56:12Z,42.805,6.029,13.2968,4.59990,2470.053,2020-4-25T07:56:52Z
2020-04-25T05:59:15Z,42.805,6.029,13.2974,4.59985,2470.063,2020-4-25T07:59:55Z
2020-04-25T06:02:18Z,42.805,6.029,13.2974,4.59981,2470.077,2020-4-25T08:02:59Z
2020-04-25T06:05:21Z,42.805,6.029,13.2971,4.59978,2470.04,2020-4-25T08:06:02Z
2020-04-25T06:08:25Z,42.805,6.029,13.2973,4.59973,2470.087,2020-4-25T08:09:05Z
2020-04-25T06:11:28Z,42.805,6.029,13.2972,4.59973,2470.087,2020-4-25T08:12:08Z
2020-04-25T06:14:31Z,42.805,6.029,13.2970,4.59973,2470.063,2020-4-25T08:15:11Z
2020-04-25T06:17:34Z,42.805,6.029,13.2968,4.59973,2470.053,2020-4-25T08:18:15Z
2020-04-25T06:20:38Z,42.805,6.029,13.2971,4.59980,2470.087,2020-4-25T08:21:18Z
2020-04-25T06:23:41Z,42.805,6.029,13.2969,4.59987,2470.087,2020-4-25T08:24:21Z
2020-04-25T06:26:44Z,42.805,6.029,13.2967,4.59981,2470.087,2020-4-25T08:27:25Z
2020-04-25T06:29:47Z,42.805,6.029,13.2971,4.59979,2470.124,2020-4-25T08:30:28Z
2020-04-25T06:32:51Z,42.805,6.029,13.2970,4.59984,2470.063,2020-4-25T08:33:31Z
2020-04-25T06:35:54Z,42.805,6.029,13.2973,4.59983,2470.133,2020-4-25T08:36:34Z
2020-04-25T06:38:57Z,42.805,6.029,13.2971,4.59988,2470.087,2020-4-25T08:39:37Z
2020-04-25T06:42:00Z,42.805,6.029,13.2971,4.59981,2470.087,2020-4-25T08:42:41Z
2020-04-25T06:45:04Z,42.805,6.029,13.2971,4.59981,2470.087,2020-4-25T08:45:44Z
2020-04-25T06:48:07Z,42.805,6.029,13.2972,4.59978,2470.124,2020-4-25T08:48:47Z
2020-04-25T06:51:10Z,42.805,6.029,13.2968,4.59982,2470.1,2020-4-25T08:51:50Z
2020-04-25T06:54:13Z,42.805,6.029,13.2970,4.59981,2470.11,2020-4-25T08:54:54Z
2020-04-25T06:57:17Z,42.805,6.029,13.2970,4.59982,2470.1,2020-4-25T08:57:57Z
2020-04-25T07:00:20Z,42.805,6.029,13.2973,4.59985,2470.124,2020-4-25T09:01:00Z
2020-04-25T07:03:23Z,42.805,6.029,13.2967,4.59981,2470.133,2020-4-25T09:04:03Z
2020-04-25T07:06:26Z,42.805,6.029,13.2972,4.59979,2470.147,2020-4-25T09:07:07Z
2020-04-25T07:09:30Z,42.805,6.029,13.2968,4.59982,2470.11,2020-4-25T09:10:10Z
2020-04-25T07:12:33Z,42.805,6.029,13.2970,4.59981,2470.11,2020-4-25T09:13:13Z
2020-04-25T07:15:36Z,42.805,6.029,13.2971,4.59978,2470.11,2020-4-25T09:16:16Z
2020-04-25T07:18:39Z,42.805,6.029,13.2971,4.59983,2470.147,2020-4-25T09:19:20Z
2020-04-25T07:21:43Z,42.805,6.029,13.2974,4.59980,2470.124,2020-4-25T09:22:23Z
2020-04-25T07:24:46Z,42.805,6.029,13.2970,4.59976,2470.147,2020-4-25T09:25:26Z
2020-04-25T07:27:49Z,42.805,6.029,13.2967,4.59978,2470.133,2020-4-25T09:28:29Z
2020-04-25T07:30:52Z,42.805,6.029,13.2973,4.59976,2470.147,2020-4-25T09:31:33Z
2020-04-25T07:33:56Z,42.805,6.029,13.2974,4.59978,2470.087,2020-4-25T09:34:36Z
2020-04-25T07:36:59Z,42.805,6.029,13.2973,4.59978,2470.147,2020-4-25T09:37:39Z
2020-04-25T07:40:02Z,42.805,6.029,13.2972,4.59980,2470.124,2020-4-25T09:40:43Z
2020-04-25T07:43:05Z,42.805,6.029,13.2971,4.59977,2470.124,2020-4-25T09:43:46Z
2020-04-25T07:46:09Z,42.805,6.029,13.2973,4.59978,2470.133,2020-4-25T09:46:49Z
2020-04-25T07:49:12Z,42.805,6.029,13.2972,4.59978,2470.147,2020-4-25T09:49:52Z
2020-04-25T07:52:15Z,42.805,6.029,13.2971,4.59981,2470.156,2020-4-25T09:52:56Z
2020-04-25T07:55:18Z,42.805,6.029,13.2968,4.59983,2470.133,2020-4-25T09:55:59Z
2020-04-25T07:58:22Z,42.805,6.029,13.2969,4.59980,2470.147,2020-4-25T09:59:02Z
2020-04-25T08:01:25Z,42.805,6.029,13.2971,4.59978,2470.133,2020-4-25T10:02:05Z
2020-04-25T08:04:28Z,42.805,6.029,13.2969,4.59978,2470.133,2020-4-25T10:05:09Z
2020-04-25T08:07:31Z,42.805,6.029,13.2974,4.59983,2470.11,2020-4-25T10:08:12Z
2020-04-25T08:10:35Z,42.805,6.029,13.2970,4.59981,2470.124,2020-4-25T10:11:15Z
2020-04-25T08:13:38Z,42.805,6.029,13.2971,4.59977,2470.11,2020-4-25T10:14:18Z
2020-04-25T08:16:41Z,42.805,6.029,13.2971,4.59979,2470.124,2020-4-25T10:17:21Z
2020-04-25T08:19:44Z,42.805,6.029,13.2968,4.59994,2470.133,2020-4-25T10:20:25Z
2020-04-25T08:22:48Z,42.805,6.029,13.2967,4.59980,2470.147,2020-4-25T10:23:28Z
2020-04-25T08:25:51Z,42.805,6.029,13.2968,4.59979,2470.124,2020-4-25T10:26:31Z
2020-04-25T08:28:54Z,42.805,6.029,13.2972,4.59978,2470.147,2020-4-25T10:29:34Z
2020-04-25T08:31:58Z,42.805,6.029,13.2971,4.59985,2470.156,2020-4-25T10:32:38Z
2020-04-25T08:35:01Z,42.805,6.029,13.2974,4.59980,2470.156,2020-4-25T10:35:41Z
2020-04-25T08:38:04Z,42.805,6.029,13.2971,4.59983,2470.133,2020-4-25T10:38:44Z
2020-04-25T08:41:07Z,42.805,6.029,13.2973,4.59978,2470.133,2020-4-25T10:41:48Z
2020-04-25T08:44:10Z,42.805,6.029,13.2968,4.59978,2470.133,2020-4-25T10:44:51Z
2020-04-25T08:47:14Z,42.805,6.029,13.2972,4.59980,2470.156,2020-4-25T10:47:54Z
2020-04-25T08:50:17Z,42.805,6.029,13.2976,4.59988,2470.133,2020-4-25T10:50:57Z
2020-04-25T08:53:20Z,42.805,6.029,13.2968,4.59977,2470.133,2020-4-25T10:54:01Z
2020-04-25T08:56:24Z,42.805,6.029,13.2971,4.59976,2470.147,2020-4-25T10:57:04Z
2020-04-25T08:59:27Z,42.805,6.029,13.2971,4.59978,2470.133,2020-4-25T11:00:08Z
2020-04-25T09:02:30Z,42.805,6.029,13.2971,4.59981,2470.11,2020-4-25T11:03:11Z
2020-04-25T09:05:34Z,42.805,6.029,13.2969,4.59980,2470.133,2020-4-25T11:06:14Z
2020-04-25T09:08:37Z,42.805,6.029,13.2971,4.59979,2470.133,2020-4-25T11:09:17Z
2020-04-25T09:11:40Z,42.805,6.029,13.2969,4.59983,2470.124,2020-4-25T11:12:21Z
2020-04-25T09:14:44Z,42.805,6.029,13.2968,4.59978,2470.11,2020-4-25T11:15:24Z
2020-04-25T09:17:47Z,42.805,6.029,13.2970,4.59988,2470.124,2020-4-25T11:18:27Z
2020-04-25T09:20:50Z,42.805,6.029,13.2971,4.59975,2470.147,2020-4-25T11:21:30Z
2020-04-25T09:23:53Z,42.805,6.029,13.2968,4.59982,2470.156,2020-4-25T11:24:34Z
2020-04-25T09:26:56Z,42.805,6.029,13.2971,4.59981,2470.133,2020-4-25T11:27:37Z
2020-04-25T09:30:00Z,42.805,6.029,13.2974,4.59985,2470.11,2020-4-25T11:30:40Z
2020-04-25T09:33:03Z,42.805,6.029,13.2971,4.59986,2470.11,2020-4-25T11:33:43Z
2020-04-25T09:36:06Z,42.805,6.029,13.2971,4.59978,2470.073,2020-4-25T11:36:47Z
2020-04-25T09:39:10Z,42.805,6.029,13.2973,4.59985,2470.11,2020-4-25T11:39:50Z
2020-04-25T09:42:13Z,42.805,6.029,13.2971,4.59978,2470.087,2020-4-25T11:42:53Z
2020-04-25T09:45:16Z,42.805,6.029,13.2973,4.59976,2470.133,2020-4-25T11:45:56Z
2020-04-25T09:48:19Z,42.805,6.029,13.2970,4.59988,2470.1,2020-4-25T11:49:00Z
2020-04-25T09:51:23Z,42.805,6.029,13.2971,4.59983,2470.1,2020-4-25T11:52:03Z
2020-04-25T09:54:26Z,42.805,6.029,13.2968,4.59981,2470.147,2020-4-25T11:55:06Z
2020-04-25T09:57:29Z,42.805,6.029,13.2970,4.59980,2470.087,2020-4-25T11:58:10Z
2020-04-25T10:00:33Z,42.805,6.029,13.2974,4.59982,2470.087,2020-4-25T12:01:13Z
2020-04-25T10:03:36Z,42.805,6.029,13.2971,4.59982,2470.11,2020-4-25T12:04:16Z
2020-04-25T10:06:39Z,42.805,6.029,13.2970,4.59979,2470.087,2020-4-25T12:07:19Z
2020-04-25T10:09:42Z,42.805,6.029,13.2968,4.59987,2470.124,2020-4-25T12:10:23Z
2020-04-25T10:12:46Z,42.805,6.029,13.2970,4.59982,2470.063,2020-4-25T12:13:26Z
2020-04-25T10:15:49Z,42.805,6.029,13.2970,4.59981,2470.1,2020-4-25T12:16:29Z
2020-04-25T10:18:52Z,42.805,6.029,13.2971,4.59982,2470.1,2020-4-25T12:19:32Z
2020-04-25T10:21:55Z,42.805,6.029,13.2971,4.59981,2470.049,2020-4-25T12:22:36Z
2020-04-25T10:24:58Z,42.805,6.029,13.2973,4.59979,2470.077,2020-4-25T12:25:39Z
2020-04-25T10:28:02Z,42.805,6.029,13.2971,4.59976,2470.124,2020-4-25T12:28:42Z
2020-04-25T10:31:05Z,42.805,6.029,13.2967,4.59976,2470.063,2020-4-25T12:31:45Z
2020-04-25T10:34:08Z,42.805,6.029,13.2971,4.59978,2470.063,2020-4-25T12:34:49Z
2020-04-25T10:37:12Z,42.805,6.029,13.2972,4.59985,2470.063,2020-4-25T12:37:52Z
2020-04-25T10:40:15Z,42.805,6.029,13.2972,4.59978,2470.077,2020-4-25T12:40:55Z
2020-04-25T10:43:18Z,42.805,6.029,13.2973,4.59976,2470.1,2020-4-25T12:43:58Z
2020-04-25T10:46:21Z,42.805,6.029,13.2968,4.59976,2470.077,2020-4-25T12:47:02Z
2020-04-25T10:49:24Z,42.805,6.029,13.2973,4.59974,2470.063,2020-4-25T12:50:05Z
2020-04-25T10:52:28Z,42.805,6.029,13.2974,4.59979,2470.053,2020-4-25T12:53:08Z
2020-04-25T10:55:31Z,42.805,6.029,13.2971,4.59976,2470.063,2020-4-25T12:56:11Z
2020-04-25T10:58:34Z,42.805,6.029,13.2972,4.59977,2470.087,2020-4-25T12:59:15Z
2020-04-25T11:01:37Z,42.805,6.029,13.2971,4.59978,2470.077,2020-4-25T13:02:18Z
2020-04-25T11:04:41Z,42.805,6.029,13.2971,4.59975,2470.077,2020-4-25T13:05:21Z
2020-04-25T11:07:44Z,42.805,6.029,13.2972,4.59974,2470.063,2020-4-25T13:08:24Z
2020-04-25T11:10:47Z,42.805,6.029,13.2969,4.59976,2470.077,2020-4-25T13:11:28Z
2020-04-25T11:13:50Z,42.805,6.029,13.2968,4.59976,2470.077,2020-4-25T13:14:31Z
2020-04-25T11:16:54Z,42.805,6.029,13.2974,4.59978,2470.053,2020-4-25T13:17:34Z
2020-04-25T11:19:57Z,42.805,6.029,13.2971,4.59977,2470.1,2020-4-25T13:20:37Z
2020-04-25T11:23:00Z,42.805,6.029,13.2969,4.59974,2470.063,2020-4-25T13:23:40Z
2020-04-25T11:26:03Z,42.805,6.029,13.2969,4.59975,2470.04,2020-4-25T13:26:44Z
2020-04-25T11:29:07Z,42.805,6.029,13.2970,4.59976,2470.077,2020-4-25T13:29:47Z
2020-04-25T11:32:10Z,42.805,6.029,13.2971,4.59978,2470.04,2020-4-25T13:32:50Z
2020-04-25T11:35:13Z,42.805,6.029,13.2969,4.59975,2470.063,2020-4-25T13:35:53Z
2020-04-25T11:38:16Z,42.805,6.029,13.2968,4.59975,2470.017,2020-4-25T13:38:57Z
2020-04-25T11:41:20Z,42.805,6.029,13.2970,4.59976,2470.053,2020-4-25T13:42:00Z
2020-04-25T11:44:23Z,42.805,6.029,13.2974,4.59978,2470.017,2020-4-25T13:45:03Z
2020-04-25T11:47:26Z,42.805,6.029,13.2974,4.59981,2470.007,2020-4-25T13:48:07Z
2020-04-25T11:50:29Z,42.805,6.029,13.2968,4.59982,2470.04,2020-4-25T13:51:10Z
2020-04-25T11:53:33Z,42.805,6.029,13.2970,4.59976,2470.017,2020-4-25T13:54:13Z
2020-04-25T11:56:36Z,42.805,6.029,13.2969,4.59973,2470.017,2020-4-25T13:57:16Z
2020-04-25T11:59:39Z,42.805,6.029,13.2967,4.59976,2470.007,2020-4-25T14:00:20Z
2020-04-25T12:02:42Z,42.805,6.029,13.2971,4.59978,2470.03,2020-4-25T14:03:23Z
2020-04-25T12:05:46Z,42.805,6.029,13.2969,4.59975,2470.03,2020-4-25T14:06:26Z
2020-04-25T12:08:49Z,42.805,6.029,13.2968,4.59979,2470.007,2020-4-25T14:09:29Z
2020-04-25T12:11:52Z,42.805,6.029,13.2971,4.59973,2470.017,2020-4-25T14:12:32Z
2020-04-25T12:14:55Z,42.805,6.029,13.2971,4.59976,2470.017,2020-4-25T14:15:36Z
2020-04-25T12:17:59Z,42.805,6.029,13.2970,4.59973,2470.03,2020-4-25T14:18:39Z
2020-04-25T12:21:02Z,42.805,6.029,13.2970,4.59976,2469.993,2020-4-25T14:21:42Z
2020-04-25T12:24:05Z,42.805,6.029,13.2967,4.59975,2469.993,2020-4-25T14:24:46Z
2020-04-25T12:27:08Z,42.805,6.029,13.2972,4.59973,2470.017,2020-4-25T14:27:49Z
2020-04-25T12:30:12Z,42.805,6.029,13.2969,4.59976,2469.993,2020-4-25T14:30:52Z
2020-04-25T12:33:15Z,42.805,6.029,13.2971,4.59975,2469.993,2020-4-25T14:33:55Z
2020-04-25T12:36:18Z,42.805,6.029,13.2969,4.59973,2470.007,2020-4-25T14:36:58Z
2020-04-25T12:39:21Z,42.805,6.029,13.2971,4.59978,2469.993,2020-4-25T14:40:02Z
2020-04-25T12:42:25Z,42.805,6.029,13.2971,4.59976,2469.984,2020-4-25T14:43:05Z
2020-04-25T12:45:28Z,42.805,6.029,13.2968,4.59978,2469.984,2020-4-25T14:46:08Z
2020-04-25T12:48:31Z,42.805,6.029,13.2970,4.59978,2469.96,2020-4-25T14:49:11Z
2020-04-25T12:51:34Z,42.805,6.029,13.2973,4.59978,2469.97,2020-4-25T14:52:15Z
2020-04-25T12:54:37Z,42.805,6.029,13.2968,4.59973,2469.984,2020-4-25T14:55:18Z
2020-04-25T12:57:41Z,42.805,6.029,13.2971,4.59976,2469.993,2020-4-25T14:58:21Z
2020-04-25T13:00:44Z,42.805,6.029,13.2969,4.59975,2469.993,2020-4-25T15:01:24Z
2020-04-25T13:03:47Z,42.805,6.029,13.2964,4.59973,2469.96,2020-4-25T15:04:28Z
2020-04-25T13:06:50Z,42.805,6.029,13.2968,4.59975,2470.007,2020-4-25T15:07:31Z
2020-04-25T13:09:54Z,42.805,6.029,13.2971,4.59976,2469.984,2020-4-25T15:10:34Z
2020-04-25T13:12:57Z,42.805,6.029,13.2968,4.59976,2469.97,2020-4-25T15:13:37Z
2020-04-25T13:16:00Z,42.805,6.029,13.2970,4.59976,2470.007,2020-4-25T15:16:41Z
2020-04-25T13:19:04Z,42.805,6.029,13.2967,4.59975,2469.97,2020-4-25T15:19:44Z
2020-04-25T13:22:07Z,42.805,6.029,13.2970,4.59975,2470.007,2020-4-25T15:22:47Z
2020-04-25T13:25:10Z,42.805,6.029,13.2971,4.59976,2469.993,2020-4-25T15:25:51Z
2020-04-25T13:28:13Z,42.805,6.029,13.2970,4.59973,2470.007,2020-4-25T15:28:54Z
2020-04-25T13:31:17Z,42.805,6.029,13.2971,4.59978,2470.007,2020-4-25T15:31:57Z
2020-04-25T13:34:20Z,42.805,6.029,13.2971,4.59976,2469.97,2020-4-25T15:35:00Z
2020-04-25T13:37:23Z,42.805,6.029,13.2971,4.59976,2469.993,2020-4-25T15:38:03Z
2020-04-25T13:40:26Z,42.805,6.029,13.2969,4.59975,2469.984,2020-4-25T15:41:07Z
2020-04-25T13:43:30Z,42.805,6.029,13.2971,4.59975,2469.947,2020-4-25T15:44:10Z
2020-04-25T13:46:33Z,42.805,6.029,13.2969,4.59973,2469.947,2020-4-25T15:47:13Z
2020-04-25T13:49:36Z,42.805,6.029,13.2968,4.59978,2469.933,2020-4-25T15:50:17Z
2020-04-25T13:52:39Z,42.805,6.029,13.2971,4.59978,2469.97,2020-4-25T15:53:20Z
2020-04-25T13:55:43Z,42.805,6.029,13.2975,4.59976,2469.96,2020-4-25T15:56:23Z
2020-04-25T13:58:46Z,42.805,6.029,13.2970,4.59975,2469.97,2020-4-25T15:59:26Z
2020-04-25T14:01:49Z,42.805,6.029,13.2974,4.59976,2469.984,2020-4-25T16:02:29Z
2020-04-25T14:04:52Z,42.805,6.029,13.2971,4.59975,2469.947,2020-4-25T16:05:33Z
2020-04-25T14:07:56Z,42.805,6.029,13.2973,4.59974,2469.923,2020-4-25T16:08:36Z
2020-04-25T14:10:59Z,42.805,6.029,13.2972,4.59978,2469.984,2020-4-25T16:11:39Z
2020-04-25T14:14:02Z,42.805,6.029,13.2969,4.59976,2469.947,2020-4-25T16:14:42Z
2020-04-25T14:17:05Z,42.805,6.029,13.2970,4.59973,2469.984,2020-4-25T16:17:46Z
2020-04-25T14:20:08Z,42.805,6.029,13.2970,4.59974,2469.947,2020-4-25T16:20:49Z
2020-04-25T14:23:12Z,42.805,6.029,13.2969,4.59972,2469.97,2020-4-25T16:23:52Z
2020-04-25T14:26:15Z,42.805,6.029,13.2974,4.59976,2469.947,2020-4-25T16:26:55Z
2020-04-25T14:29:18Z,42.805,6.029,13.2969,4.59979,2469.97,2020-4-25T16:29:58Z
2020-04-25T14:32:21Z,42.805,6.029,13.2972,4.59976,2469.97,2020-4-25T16:33:02Z
2020-04-25T14:35:24Z,42.805,6.029,13.2971,4.59976,2469.947,2020-4-25T16:36:05Z
2020-04-25T14:38:28Z,42.805,6.029,13.2973,4.59975,2469.947,2020-4-25T16:39:08Z
2020-04-25T14:41:31Z,42.805,6.029,13.2968,4.59978,2469.96,2020-4-25T16:42:11Z
2020-04-25T14:44:34Z,42.805,6.029,13.2973,4.59975,2469.947,2020-4-25T16:45:14Z
2020-04-25T14:47:37Z,42.805,6.029,13.2968,4.59980,2469.97,2020-4-25T16:48:18Z
2020-04-25T14:50:40Z,42.805,6.029,13.2969,4.59969,2469.984,2020-4-25T16:51:21Z
2020-04-25T14:53:44Z,42.805,6.029,13.2973,4.59973,2469.984,2020-4-25T16:54:24Z
2020-04-25T14:56:47Z,42.805,6.029,13.2972,4.59978,2469.984,2020-4-25T16:57:27Z
2020-04-25T14:59:50Z,42.805,6.029,13.2971,4.59973,2469.923,2020-4-25T17:00:31Z
2020-04-25T15:02:53Z,42.805,6.029,13.2966,4.59972,2469.96,2020-4-25T17:03:34Z
2020-04-25T15:05:57Z,42.805,6.029,13.2968,4.59976,2469.984,2020-4-25T17:06:37Z
2020-04-25T15:09:00Z,42.805,6.029,13.2968,4.59973,2469.96,2020-4-25T17:09:40Z
2020-04-25T15:12:03Z,42.805,6.029,13.2971,4.59976,2469.947,2020-4-25T17:12:43Z